Flag for Norway Weather past 2 weeks in Bardufoss, Norway

Now
52 °F

Sunny.


Feels Like: 52 °F
Forecast: 35 / 52 °F
Wind: 2 mph from North

Location: Bardufoss

Current Time: Sep 15, 2014 at 12:37:30 PM

Latest Report: Sep 15, 2014 at 11:50 AM


Visibility: 10 mi

Pressure: 30.45 "Hg

Humidity: 54%

Dew point: 36 °F

Location of BardufossLocation

Historic Weather in Bardufoss — Graph

°F

Bardufoss temperature yesterday

Maximum temperature yesterday: 52 °F (at 12:50 AM)
Minimum temperature yesterday: 43 °F (at 10:50 PM)
Average temperature yesterday: 49 °F

Past Weeks' High & Low Weather Summary

 TemperatureHumidityPressure
High66 °F (Sep 1, 1:20 PM)100% (Sep 1, 5:20 AM)30.48 "Hg (Sep 1, 5:20 AM)
Low32 °F (Sep 13, 3:50 AM)43% (Sep 1, 1:20 PM)29.71 "Hg (Sep 11, 8:20 AM)
Average51 °F79%30.02 "Hg
* Reported Aug 31 11:20 AM — Sep 15 11:20 AM, Bardufoss, Weather by CustomWeather, © 2014

Note: Actual official high and low records may vary slightly from our data, if they occured in-between our weather recording intervals... More about our weather records

Advertising

Bardufoss weather history for previous 24 hours

 ConditionsComfort  
Time TempWeatherWind HumidityBarometerVisibility
11:20 AM
Sep 15
52 °FSunny.3 mph54%30.45 "Hg10 mi
10:50 AM50 °FSunny.1 mph67%30.45 "Hg10 mi
10:20 AM48 °FSunny.5 mph71%30.45 "Hg10 mi
9:50 AM45 °FSunny.3 mph71%30.45 "Hg10 mi
9:20 AM45 °FPassing clouds.3 mph71%30.45 "HgN/A
8:50 AM43 °FSunny.1 mph76%30.45 "Hg10 mi
8:20 AM43 °FSunny.No wind76%30.45 "Hg10 mi
7:50 AM39 °FPassing clouds.2 mph81%30.45 "HgN/A
7:20 AM37 °FPassing clouds.3 mph87%30.45 "HgN/A
6:50 AM36 °FPassing clouds.3 mph81%30.45 "HgN/A
6:20 AM37 °FPassing clouds.1 mph87%30.45 "HgN/A
5:50 AM37 °FPassing clouds.1 mph87%30.45 "HgN/A
5:20 AM37 °FPassing clouds.2 mph87%30.48 "HgN/A
4:50 AM39 °FPassing clouds.2 mph81%30.48 "HgN/A
3:50 AM39 °FPassing clouds.1 mph87%30.48 "HgN/A
2:50 AM39 °FPassing clouds.2 mph81%30.48 "HgN/A
1:50 AM41 °FPassing clouds.2 mph76%30.48 "HgN/A
12:50 AM43 °FPassing clouds.5 mph71%30.48 "HgN/A
11:50 PM
Sep 14
43 °FPassing clouds.6 mph71%30.48 "HgN/A
10:50 PM43 °FPassing clouds.7 mph76%30.45 "HgN/A
9:50 PM46 °FPassing clouds.7 mph66%30.45 "HgN/A
8:50 PM46 °FPassing clouds.6 mph66%30.42 "HgN/A
7:50 PM48 °FScattered clouds.7 mph62%30.42 "HgN/A
6:50 PM50 °FScattered clouds.6 mph62%30.39 "HgN/A
6:20 PM50 °FScattered clouds.10 mph62%30.39 "HgN/A
5:50 PM50 °FScattered clouds.9 mph62%30.39 "HgN/A
5:20 PM50 °FScattered clouds.14 mph58%30.39 "HgN/A
4:50 PM52 °FScattered clouds.14 mph54%30.39 "HgN/A
4:20 PM52 °FScattered clouds.13 mph54%30.36 "HgN/A
3:50 PM50 °FPartly sunny.14 mph58%30.36 "HgN/A
3:20 PM52 °FPartly sunny.14 mph50%30.36 "HgN/A
2:50 PM52 °FPartly sunny.13 mph47%30.36 "HgN/A
2:20 PM50 °FPartly sunny.14 mph58%30.36 "HgN/A
1:50 PM52 °FScattered showers. Partly sunny.14 mph54%30.33 "HgN/A
1:20 PM50 °FScattered showers. Partly sunny.15 mph58%30.33 "HgN/A
12:50 PM52 °FScattered showers. Partly sunny.17 mph54%30.30 "HgN/A
12:20 PM50 °FPartly sunny.15 mph58%30.30 "HgN/A
Weather by CustomWeather, © 2014

See weather overviewHow to use our weather pages